Flag for China Weather past 2 weeks in Lanzhou, Gansu, China

Now
5 °F

Clear.


Feels Like: -6 °F
Forecast: 9 / 42 °F
Wind: 6 mph from Northwest

Location: Lanzhou / Zhongchuan

Current Time: Dec 28, 2014 at 7:36:16 AM

Latest Report: Dec 28, 2014 at 7:00 AM


Visibility: 4 mi

Pressure: 30.39 "Hg

Humidity: 78%

Dew point: 0 °F

Location of LanzhouLocation

Historic Weather in Lanzhou — Graph

°F

Lanzhou temperature yesterday

Maximum temperature yesterday: 32 °F (at 2:00 PM)
Minimum temperature yesterday: 9 °F (at 8:00 AM)
Average temperature yesterday: 18 °F

Past Weeks' High & Low Weather Summary

 TemperatureHumidityPressure
High36 °F (Dec 23, 4:00 PM)85% (Dec 28, 6:00 AM)30.60 "Hg (Dec 28, 6:00 AM)
Low-4 °F (Dec 21, 8:00 AM)18% (Dec 14, 4:00 PM)30.01 "Hg (Dec 22, 2:00 PM)
Average16 °F53%30.27 "Hg
* Reported Dec 13 6:00 AM — Dec 28 6:00 AM, Lanzhou, Weather by CustomWeather, © 2014

Note: Actual official high and low records may vary slightly from our data, if they occured in-between our weather recording intervals... More about our weather records

Advertising

Lanzhou weather history for previous 24 hours

 ConditionsComfort  
Time TempWeatherWind HumidityBarometerVisibility
6:00 AM
Dec 28
5 °FClear.6 mph85%30.39 "Hg4 mi
5:00 AM7 °FIce fog.3 mph78%30.39 "Hg3 mi
4:00 AM7 °FClear.6 mph78%30.42 "Hg4 mi
3:00 AM9 °FClear.6 mph78%30.42 "Hg4 mi
2:00 AM10 °FIce fog.8 mph72%30.42 "Hg3 mi
1:00 AM9 °FClear.6 mph78%30.45 "Hg3 mi
12:00 AM10 °FClear.3 mph72%30.45 "Hg3 mi
11:00 PM
Dec 27
10 °FClear.3 mph72%30.45 "Hg3 mi
10:00 PM12 °FClear.6 mph73%30.45 "Hg3 mi
9:00 PM16 °FClear.3 mph67%30.45 "Hg3 mi
8:00 PM19 °FClear.3 mph63%30.45 "Hg3 mi
7:00 PM23 °FClear.1 mph58%30.45 "Hg3 mi
6:00 PM27 °FClear.1 mph54%30.42 "Hg4 mi
5:00 PM30 °FClear.No wind51%30.42 "Hg5 mi
4:00 PM32 °FClear.6 mph47%30.39 "Hg5 mi
3:00 PM32 °FClear.8 mph47%30.39 "Hg5 mi
2:00 PM32 °FClear.8 mph47%30.42 "Hg5 mi
1:00 PM30 °FClear.6 mph51%30.42 "Hg5 mi
12:00 PM28 °FClear.3 mph51%30.45 "Hg5 mi
11:00 AM23 °FClear.1 mph58%30.48 "Hg5 mi
10:00 AM18 °FClear.3 mph68%30.48 "Hg4 mi
9:00 AM9 °FClear.3 mph78%30.42 "Hg4 mi
8:00 AM9 °FClear.3 mph78%30.42 "Hg4 mi
7:00 AM10 °FClear.3 mph79%30.39 "Hg4 mi
Weather by CustomWeather, © 2014

See weather overviewHow to use our weather pages